Retour au catalogue

METEOR 1-5 DEB

ActifPO
NORAD 58398·DEBRIS·🇷🇺 Russia

Lancé Jun 23, 1970 depuis Plesetsk Cosmodrome

Loading…

Prochains Passages (prochaines 24 heures)

TLE

FraisSource: Space-Track

Époque: Sep 14, 2026, 08:48 UTC

1 58398U 70047E   26257.36707842  .00002605  00000-0  96967-3 0  9993
2 58398  81.2061 131.7230 0049405 131.9244 228.6167 14.31156687149622

Suivez METEOR 1-5 DEB en temps réel avec AllMySat

Download on the App Store